Time,TemperatureF,DewpointF,PressureIn,WindDirection,WindDirectionDegrees,WindSpeedMPH,WindSpeedGustMPH,Humidity,HourlyPrecipIn,Conditions,Clouds,dailyrainin,SoftwareType,DateUTC
2013-02-13 00:00:00,27.2,21.0,29.81,NNW,346,0.0,0.0,77,0.00,,SKC,0.00,VWS V14.01,2013-02-13 05:00:00,
2013-02-13 00:17:00,26.0,20.7,29.81,NNW,346,0.0,0.0,80,0.00,,SKC,0.00,VWS V14.01,2013-02-13 05:17:00,
2013-02-13 00:18:00,26.0,20.7,29.81,NNW,346,0.0,0.0,80,0.00,,SKC,0.00,VWS V14.01,2013-02-13 05:18:00,
2013-02-13 00:23:00,25.7,20.4,29.81,NNW,346,0.0,0.0,80,0.00,,SKC,0.00,VWS V14.01,2013-02-13 05:23:00,
2013-02-13 01:00:00,25.8,20.8,29.80,NNW,346,0.0,0.0,81,0.00,,SKC,0.00,VWS V14.01,2013-02-13 06:00:00,
2013-02-13 02:00:00,26.9,21.0,29.78,NNW,346,0.0,0.0,78,0.00,,SKC,0.00,VWS V14.01,2013-02-13 07:00:00,
2013-02-13 03:00:00,25.3,20.3,29.76,NNW,346,0.0,3.0,81,0.00,,SKC,0.00,VWS V14.01,2013-02-13 08:00:00,
2013-02-13 04:00:00,24.2,19.8,29.76,NNW,346,0.0,0.0,83,0.00,,SKC,0.00,VWS V14.01,2013-02-13 09:00:00,
2013-02-13 05:00:00,23.6,19.2,29.76,NNW,346,0.0,4.0,83,0.00,,SKC,0.00,VWS V14.01,2013-02-13 10:00:00,
2013-02-13 06:00:00,23.6,19.5,29.74,NNW,346,0.0,0.0,84,0.00,,SKC,0.00,VWS V14.01,2013-02-13 11:00:00,
2013-02-13 07:00:00,24.5,20.4,29.72,NNW,346,0.0,4.0,84,0.00,,SKC,0.00,VWS V14.01,2013-02-13 12:00:00,
2013-02-13 08:00:00,25.1,20.7,29.70,NNW,346,0.0,4.0,83,0.00,,SKC,0.00,VWS V14.01,2013-02-13 13:00:00,
2013-02-13 09:00:00,27.3,22.5,29.67,NNW,346,2.0,5.0,82,0.00,,SKC,0.00,VWS V14.01,2013-02-13 14:00:00,
2013-02-13 10:00:00,30.1,24.4,29.70,ENE,58,0.0,6.0,79,0.00,,SKC,0.00,VWS V14.01,2013-02-13 15:00:00,
2013-02-13 11:00:00,31.5,24.8,29.69,East,101,5.0,8.0,76,0.00,,SKC,0.00,VWS V14.01,2013-02-13 16:00:00,
2013-02-13 12:00:00,32.8,24.8,29.67,ESE,120,0.0,8.0,72,0.00,,SKC,0.00,VWS V14.01,2013-02-13 17:00:00,
2013-02-13 12:23:00,32.8,24.8,29.66,ESE,105,0.0,8.0,72,0.00,,SKC,0.00,VWS V14.01,2013-02-13 17:23:00,
2013-02-13 12:28:00,32.8,24.8,29.66,SSE,148,0.0,8.0,72,0.00,,SKC,0.00,VWS V14.01,2013-02-13 17:28:00,
2013-02-13 12:33:00,32.8,24.5,29.66,SSE,148,0.0,8.0,71,0.00,,SKC,0.00,VWS V14.01,2013-02-13 17:33:00,
2013-02-13 13:00:00,33.4,25.0,29.61,SE,136,2.0,7.0,71,0.00,,SKC,0.00,VWS V14.01,2013-02-13 18:00:00,
2013-02-13 14:00:00,33.4,25.0,29.61,SE,136,2.0,7.0,71,0.00,,SKC,0.00,VWS V14.01,2013-02-13 19:00:00,
2013-02-13 15:00:00,33.4,25.4,29.61,ESE,108,0.0,7.0,72,0.00,,SKC,0.00,VWS V14.01,2013-02-13 20:00:00,
2013-02-13 16:00:00,33.2,24.8,29.62,East,85,6.0,9.0,71,0.00,,SKC,0.00,VWS V14.01,2013-02-13 21:00:00,
2013-02-13 17:00:00,32.9,24.2,29.64,East,86,0.0,8.0,70,0.00,,SKC,0.00,VWS V14.01,2013-02-13 22:00:00,
2013-02-13 18:00:00,31.8,24.1,29.65,NE,40,0.0,7.0,73,0.00,,SKC,0.00,VWS V14.01,2013-02-13 23:00:00,
2013-02-13 19:00:00,30.3,23.3,29.67,NE,40,0.0,6.0,75,0.00,,SKC,0.00,VWS V14.01,2013-02-14 00:00:00,
2013-02-13 20:00:00,28.7,22.4,29.71,NE,40,0.0,5.0,77,0.00,,SKC,0.00,VWS V14.01,2013-02-14 01:00:00,
2013-02-13 21:00:00,27.2,21.6,29.73,NE,40,0.0,4.0,79,0.00,,SKC,0.00,VWS V14.01,2013-02-14 02:00:00,
2013-02-13 22:00:00,26.6,21.6,29.74,NE,40,0.0,0.0,81,0.00,,SKC,0.00,VWS V14.01,2013-02-14 03:00:00,
2013-02-13 23:00:00,25.8,21.1,29.75,NE,40,0.0,0.0,82,0.00,,SKC,0.00,VWS V14.01,2013-02-14 04:00:00,